Time,TemperatureF,DewpointF,PressureIn,WindDirection,WindDirectionDegrees,WindSpeedMPH,WindSpeedGustMPH,Humidity,HourlyPrecipIn,Conditions,Clouds,dailyrainin,SolarRadiationWatts/m^2,SoftwareType,DateUTC
2013-05-24 00:02:00,56.0,56.0,-100.00,SE,143,0.0,4.0,100,0.00,,,0.00,0.000000,,2013-05-24 10:02:00,
2013-05-24 00:12:00,56.0,56.0,-100.00,SE,143,0.0,4.0,100,0.00,,,0.00,0.000000,,2013-05-24 10:12:00,
2013-05-24 00:22:00,56.0,56.0,-100.00,SE,143,0.0,4.0,100,0.00,,,0.00,0.000000,,2013-05-24 10:22:00,
2013-05-24 00:32:00,56.0,56.0,-100.00,SE,143,0.0,4.0,100,0.00,,,0.00,0.000000,,2013-05-24 10:32:00,
2013-05-24 00:52:00,51.0,51.0,-100.00,NE,37,2.0,6.0,100,0.00,,,0.00,0.000000,,2013-05-24 10:52:00,
2013-05-24 01:02:00,51.0,51.0,-100.00,NE,37,2.0,6.0,100,0.00,,,0.00,0.000000,,2013-05-24 11:02:00,
2013-05-24 01:12:00,51.0,51.0,-100.00,NE,37,2.0,6.0,100,0.00,,,0.00,0.000000,,2013-05-24 11:12:00,
2013-05-24 01:22:00,51.0,51.0,-100.00,NE,37,2.0,6.0,100,0.00,,,0.00,0.000000,,2013-05-24 11:22:00,
2013-05-24 01:32:00,51.0,51.0,-100.00,NE,37,2.0,6.0,100,0.00,,,0.00,0.000000,,2013-05-24 11:32:00,
2013-05-24 01:52:00,50.0,49.0,-100.00,NE,50,4.0,7.0,96,0.00,,,0.00,0.000000,,2013-05-24 11:52:00,
2013-05-24 02:02:00,50.0,49.0,-100.00,NE,50,4.0,7.0,96,0.00,,,0.00,0.000000,,2013-05-24 12:02:00,
2013-05-24 02:11:00,50.0,49.0,-100.00,NE,50,4.0,7.0,96,0.00,,,0.00,0.000000,,2013-05-24 12:11:00,
2013-05-24 02:21:00,50.0,49.0,-100.00,NE,50,4.0,7.0,96,0.00,,,0.00,0.000000,,2013-05-24 12:21:00,
2013-05-24 02:32:00,50.0,49.0,-100.00,NE,50,4.0,7.0,96,0.00,,,0.00,0.000000,,2013-05-24 12:32:00,
2013-05-24 02:52:00,50.0,48.0,-100.00,NE,40,4.0,8.0,92,0.00,,,0.00,0.000000,,2013-05-24 12:52:00,
2013-05-24 03:02:00,50.0,48.0,-100.00,NE,40,4.0,8.0,92,0.00,,,0.00,0.000000,,2013-05-24 13:02:00,
2013-05-24 03:11:00,50.0,48.0,-100.00,NE,40,4.0,8.0,92,0.00,,,0.00,0.000000,,2013-05-24 13:11:00,
2013-05-24 03:21:00,50.0,48.0,-100.00,NE,40,4.0,8.0,92,0.00,,,0.00,0.000000,,2013-05-24 13:21:00,
2013-05-24 03:31:00,50.0,48.0,-100.00,NE,40,4.0,8.0,92,0.00,,,0.00,0.000000,,2013-05-24 13:31:00,
2013-05-24 03:52:00,50.0,45.0,-100.00,NE,53,4.0,8.0,83,0.00,,,0.00,0.000000,,2013-05-24 13:52:00,
2013-05-24 04:01:00,50.0,45.0,-100.00,NE,53,4.0,8.0,83,0.00,,,0.00,0.000000,,2013-05-24 14:01:00,
2013-05-24 04:11:00,50.0,45.0,-100.00,NE,53,4.0,8.0,83,0.00,,,0.00,0.000000,,2013-05-24 14:11:00,
2013-05-24 04:21:00,50.0,45.0,-100.00,NE,53,4.0,8.0,83,0.00,,,0.00,0.000000,,2013-05-24 14:21:00,
2013-05-24 04:31:00,50.0,45.0,-100.00,NE,53,4.0,8.0,83,0.00,,,0.00,0.000000,,2013-05-24 14:31:00,
2013-05-24 04:52:00,50.0,44.0,-100.00,NE,56,4.0,9.0,81,0.00,,,0.00,0.000000,,2013-05-24 14:52:00,
2013-05-24 05:02:00,50.0,44.0,-100.00,NE,56,4.0,9.0,81,0.00,,,0.00,0.000000,,2013-05-24 15:02:00,
2013-05-24 05:11:00,50.0,44.0,-100.00,NE,56,4.0,9.0,81,0.00,,,0.00,0.000000,,2013-05-24 15:11:00,
2013-05-24 05:21:00,50.0,44.0,-100.00,NE,56,4.0,9.0,81,0.00,,,0.00,0.000000,,2013-05-24 15:21:00,
2013-05-24 05:32:00,50.0,44.0,-100.00,NE,56,4.0,9.0,81,0.00,,,0.00,0.000000,,2013-05-24 15:32:00,
2013-05-24 05:52:00,50.0,44.0,-100.00,East,84,5.0,7.0,81,0.00,,,0.00,0.000000,,2013-05-24 15:52:00,
2013-05-24 06:03:00,50.0,44.0,-100.00,East,84,5.0,7.0,81,0.00,,,0.00,0.000000,,2013-05-24 16:03:00,
2013-05-24 06:12:00,50.0,44.0,-100.00,East,84,5.0,7.0,81,0.00,,,0.00,0.000000,,2013-05-24 16:12:00,
2013-05-24 06:22:00,50.0,44.0,-100.00,East,84,5.0,7.0,81,0.00,,,0.00,0.000000,,2013-05-24 16:22:00,
2013-05-24 06:32:00,50.0,44.0,-100.00,East,84,5.0,7.0,81,0.00,,,0.00,0.000000,,2013-05-24 16:32:00,
2013-05-24 06:52:00,51.0,46.0,-100.00,ENE,69,1.0,7.0,84,0.00,,,0.00,19.000000,,2013-05-24 16:52:00,
2013-05-24 07:02:00,51.0,46.0,-100.00,ENE,69,1.0,7.0,84,0.00,,,0.00,19.000000,,2013-05-24 17:02:00,
2013-05-24 07:12:00,51.0,46.0,-100.00,ENE,69,1.0,7.0,84,0.00,,,0.00,19.000000,,2013-05-24 17:12:00,
2013-05-24 07:22:00,51.0,46.0,-100.00,ENE,69,1.0,7.0,84,0.00,,,0.00,19.000000,,2013-05-24 17:22:00,
2013-05-24 07:32:00,51.0,46.0,-100.00,ENE,69,1.0,7.0,84,0.00,,,0.00,19.000000,,2013-05-24 17:32:00,
2013-05-24 07:52:00,62.0,49.0,-100.00,NNW,334,1.0,5.0,62,0.00,,,0.00,286.000000,,2013-05-24 17:52:00,
2013-05-24 08:01:00,62.0,49.0,-100.00,NNW,334,1.0,5.0,62,0.00,,,0.00,286.000000,,2013-05-24 18:01:00,
2013-05-24 08:11:00,62.0,49.0,-100.00,NNW,334,1.0,5.0,62,0.00,,,0.00,286.000000,,2013-05-24 18:11:00,
2013-05-24 08:21:00,62.0,49.0,-100.00,NNW,334,1.0,5.0,62,0.00,,,0.00,286.000000,,2013-05-24 18:21:00,
2013-05-24 08:31:00,62.0,49.0,-100.00,NNW,334,1.0,5.0,62,0.00,,,0.00,286.000000,,2013-05-24 18:31:00,
2013-05-24 08:52:00,66.0,54.0,-100.00,SSW,212,3.0,6.0,66,0.00,,,0.00,578.000000,,2013-05-24 18:52:00,
2013-05-24 09:01:00,66.0,54.0,-100.00,SSW,212,3.0,6.0,66,0.00,,,0.00,578.000000,,2013-05-24 19:01:00,
2013-05-24 09:11:00,66.0,54.0,-100.00,SSW,212,3.0,6.0,66,0.00,,,0.00,578.000000,,2013-05-24 19:11:00,
2013-05-24 09:21:00,66.0,54.0,-100.00,SSW,212,3.0,6.0,66,0.00,,,0.00,578.000000,,2013-05-24 19:21:00,
2013-05-24 09:31:00,66.0,54.0,-100.00,SSW,212,3.0,6.0,66,0.00,,,0.00,578.000000,,2013-05-24 19:31:00,
2013-05-24 09:52:00,65.0,55.0,-100.00,West,267,3.0,8.0,70,0.00,,,0.00,731.000000,,2013-05-24 19:52:00,
2013-05-24 10:02:00,65.0,55.0,-100.00,West,267,3.0,8.0,70,0.00,,,0.00,731.000000,,2013-05-24 20:02:00,
2013-05-24 10:11:00,65.0,55.0,-100.00,West,267,3.0,8.0,70,0.00,,,0.00,731.000000,,2013-05-24 20:11:00,
2013-05-24 10:21:00,65.0,55.0,-100.00,West,267,3.0,8.0,70,0.00,,,0.00,731.000000,,2013-05-24 20:21:00,
2013-05-24 10:31:00,65.0,55.0,-100.00,West,267,3.0,8.0,70,0.00,,,0.00,731.000000,,2013-05-24 20:31:00,
2013-05-24 10:52:00,64.0,56.0,-100.00,WSW,246,5.0,10.0,76,0.00,,,0.00,603.000000,,2013-05-24 20:52:00,
2013-05-24 11:01:00,64.0,56.0,-100.00,WSW,246,5.0,10.0,76,0.00,,,0.00,603.000000,,2013-05-24 21:01:00,
2013-05-24 11:11:00,64.0,56.0,-100.00,WSW,246,5.0,10.0,76,0.00,,,0.00,603.000000,,2013-05-24 21:11:00,
2013-05-24 11:21:00,64.0,56.0,-100.00,WSW,246,5.0,10.0,76,0.00,,,0.00,603.000000,,2013-05-24 21:21:00,
2013-05-24 11:32:00,64.0,56.0,-100.00,WSW,246,5.0,10.0,76,0.00,,,0.00,603.000000,,2013-05-24 21:32:00,
2013-05-24 11:53:00,64.0,58.0,-100.00,West,275,5.0,13.0,80,0.00,,,0.00,697.000000,,2013-05-24 21:53:00,
2013-05-24 12:02:00,64.0,58.0,-100.00,West,275,5.0,13.0,80,0.00,,,0.00,697.000000,,2013-05-24 22:02:00,
2013-05-24 12:12:00,64.0,58.0,-100.00,West,275,5.0,13.0,80,0.00,,,0.00,697.000000,,2013-05-24 22:12:00,
2013-05-24 12:22:00,64.0,58.0,-100.00,West,275,5.0,13.0,80,0.00,,,0.00,697.000000,,2013-05-24 22:22:00,
2013-05-24 12:32:00,64.0,58.0,-100.00,West,275,5.0,13.0,80,0.00,,,0.00,697.000000,,2013-05-24 22:32:00,
2013-05-24 12:52:00,65.0,58.0,-100.00,WSW,254,5.0,10.0,79,0.00,,,-99.99,579.000000,,2013-05-24 22:52:00,
2013-05-24 13:02:00,65.0,58.0,-100.00,WSW,254,5.0,10.0,79,0.00,,,-99.99,579.000000,,2013-05-24 23:02:00,
2013-05-24 13:11:00,65.0,58.0,-100.00,WSW,254,5.0,10.0,79,0.00,,,-99.99,579.000000,,2013-05-24 23:11:00,
2013-05-24 13:22:00,65.0,58.0,-100.00,WSW,254,5.0,10.0,79,0.00,,,-99.99,579.000000,,2013-05-24 23:22:00,
2013-05-24 13:32:00,65.0,58.0,-100.00,WSW,254,5.0,10.0,79,0.00,,,-99.99,579.000000,,2013-05-24 23:32:00,
2013-05-24 13:52:00,64.0,59.0,-100.00,West,264,4.0,10.0,83,0.00,,,0.00,506.000000,,2013-05-24 23:52:00,
2013-05-24 14:01:00,64.0,59.0,-100.00,West,264,4.0,10.0,83,0.00,,,0.00,506.000000,,2013-05-25 00:01:00,
2013-05-24 14:11:00,64.0,59.0,-100.00,West,264,4.0,10.0,83,0.00,,,0.00,506.000000,,2013-05-25 00:11:00,
2013-05-24 14:21:00,64.0,59.0,-100.00,West,264,4.0,10.0,83,0.00,,,0.00,506.000000,,2013-05-25 00:21:00,
2013-05-24 14:32:00,64.0,59.0,-100.00,West,264,4.0,10.0,83,0.00,,,0.00,506.000000,,2013-05-25 00:32:00,
2013-05-24 14:52:00,62.0,59.0,-100.00,West,267,3.0,8.0,89,0.00,,,0.00,200.000000,,2013-05-25 00:52:00,
2013-05-24 15:01:00,62.0,59.0,-100.00,West,267,3.0,8.0,89,0.00,,,0.00,200.000000,,2013-05-25 01:01:00,
2013-05-24 15:11:00,62.0,59.0,-100.00,West,267,3.0,8.0,89,0.00,,,0.00,200.000000,,2013-05-25 01:11:00,
2013-05-24 15:22:00,62.0,59.0,-100.00,West,267,3.0,8.0,89,0.00,,,0.00,200.000000,,2013-05-25 01:22:00,
2013-05-24 15:32:00,62.0,59.0,-100.00,West,267,3.0,8.0,89,0.00,,,0.00,200.000000,,2013-05-25 01:32:00,
2013-05-24 15:52:00,60.0,60.0,-100.00,West,278,4.0,7.0,100,0.05,,,0.05,123.000000,,2013-05-25 01:52:00,
2013-05-24 16:01:00,60.0,60.0,-100.00,West,278,4.0,7.0,100,0.05,,,0.05,123.000000,,2013-05-25 02:01:00,
2013-05-24 16:11:00,60.0,60.0,-100.00,West,278,4.0,7.0,100,0.05,,,0.05,123.000000,,2013-05-25 02:11:00,
2013-05-24 16:21:00,60.0,60.0,-100.00,West,278,4.0,7.0,100,0.05,,,0.05,123.000000,,2013-05-25 02:21:00,
2013-05-24 16:31:00,60.0,60.0,-100.00,West,278,4.0,7.0,100,0.05,,,0.05,123.000000,,2013-05-25 02:31:00,
2013-05-24 16:52:00,57.0,57.0,-100.00,West,261,3.0,8.0,100,0.06,,,0.11,125.000000,,2013-05-25 02:52:00,
2013-05-24 17:01:00,57.0,57.0,-100.00,West,261,3.0,8.0,100,0.06,,,0.11,125.000000,,2013-05-25 03:01:00,
2013-05-24 17:11:00,57.0,57.0,-100.00,West,261,3.0,8.0,100,0.06,,,0.11,125.000000,,2013-05-25 03:11:00,
2013-05-24 17:21:00,57.0,57.0,-100.00,West,261,3.0,8.0,100,0.06,,,0.11,125.000000,,2013-05-25 03:21:00,
2013-05-24 17:32:00,57.0,57.0,-100.00,West,261,3.0,8.0,100,0.06,,,0.11,125.000000,,2013-05-25 03:32:00,
2013-05-24 17:53:00,57.0,57.0,-100.00,NW,313,4.0,10.0,100,0.03,,,0.14,88.000000,,2013-05-25 03:53:00,
2013-05-24 18:02:00,57.0,57.0,-100.00,NW,313,4.0,10.0,100,0.03,,,0.14,88.000000,,2013-05-25 04:02:00,
2013-05-24 18:12:00,57.0,57.0,-100.00,NW,313,4.0,10.0,100,0.03,,,0.14,88.000000,,2013-05-25 04:12:00,
2013-05-24 18:23:00,57.0,57.0,-100.00,NW,313,4.0,10.0,100,0.03,,,0.14,88.000000,,2013-05-25 04:23:00,
2013-05-24 18:32:00,57.0,57.0,-100.00,NW,313,4.0,10.0,100,0.03,,,0.14,88.000000,,2013-05-25 04:32:00,
2013-05-24 18:53:00,58.0,58.0,-100.00,NNW,329,4.0,10.0,100,0.00,,,0.14,36.000000,,2013-05-25 04:53:00,
2013-05-24 19:02:00,58.0,58.0,-100.00,NNW,329,4.0,10.0,100,0.00,,,0.14,36.000000,,2013-05-25 05:02:00,
2013-05-24 19:12:00,58.0,58.0,-100.00,NNW,329,4.0,10.0,100,0.00,,,0.14,36.000000,,2013-05-25 05:12:00,
2013-05-24 19:22:00,58.0,58.0,-100.00,NNW,329,4.0,10.0,100,0.00,,,0.14,36.000000,,2013-05-25 05:22:00,
2013-05-24 19:32:00,58.0,58.0,-100.00,NNW,329,4.0,10.0,100,0.00,,,0.14,36.000000,,2013-05-25 05:32:00,
2013-05-24 19:52:00,56.0,56.0,-100.00,NNW,347,3.0,9.0,100,0.00,,,0.14,7.000000,,2013-05-25 05:52:00,
2013-05-24 20:02:00,56.0,56.0,-100.00,NNW,347,3.0,9.0,100,0.00,,,0.14,7.000000,,2013-05-25 06:02:00,
2013-05-24 20:12:00,56.0,56.0,-100.00,NNW,347,3.0,9.0,100,0.00,,,0.14,7.000000,,2013-05-25 06:12:00,
2013-05-24 20:21:00,56.0,56.0,-100.00,NNW,347,3.0,9.0,100,0.00,,,0.14,7.000000,,2013-05-25 06:21:00,
2013-05-24 20:32:00,56.0,56.0,-100.00,NNW,347,3.0,9.0,100,0.00,,,0.14,7.000000,,2013-05-25 06:32:00,
2013-05-24 20:52:00,55.0,55.0,-100.00,NNW,333,3.0,8.0,100,0.00,,,0.14,0.000000,,2013-05-25 06:52:00,
2013-05-24 21:01:00,55.0,55.0,-100.00,NNW,333,3.0,8.0,100,0.00,,,0.14,0.000000,,2013-05-25 07:01:00,
2013-05-24 21:11:00,55.0,55.0,-100.00,NNW,333,3.0,8.0,100,0.00,,,0.14,0.000000,,2013-05-25 07:11:00,
2013-05-24 21:21:00,55.0,55.0,-100.00,NNW,333,3.0,8.0,100,0.00,,,0.14,0.000000,,2013-05-25 07:21:00,
2013-05-24 21:31:00,55.0,55.0,-100.00,NNW,333,3.0,8.0,100,0.00,,,0.14,0.000000,,2013-05-25 07:31:00,
2013-05-24 21:52:00,55.0,55.0,-100.00,NE,48,4.0,8.0,100,0.00,,,0.14,0.000000,,2013-05-25 07:52:00,
2013-05-24 22:02:00,55.0,55.0,-100.00,NE,48,4.0,8.0,100,0.00,,,0.14,0.000000,,2013-05-25 08:02:00,
2013-05-24 22:11:00,55.0,55.0,-100.00,NE,48,4.0,8.0,100,0.00,,,0.14,0.000000,,2013-05-25 08:11:00,
2013-05-24 22:22:00,55.0,55.0,-100.00,NE,48,4.0,8.0,100,0.00,,,0.14,0.000000,,2013-05-25 08:22:00,
2013-05-24 22:31:00,55.0,55.0,-100.00,NE,48,4.0,8.0,100,0.00,,,0.14,0.000000,,2013-05-25 08:31:00,
2013-05-24 22:33:00,54.0,54.0,-100.00,ESE,111,0.0,6.0,100,0.00,,,0.14,0.000000,,2013-05-25 08:33:00,
2013-05-24 22:52:00,54.0,54.0,-100.00,ESE,111,0.0,6.0,100,0.00,,,0.14,0.000000,,2013-05-25 08:52:00,
2013-05-24 23:01:00,54.0,54.0,-100.00,ESE,111,0.0,6.0,100,0.00,,,0.14,0.000000,,2013-05-25 09:01:00,
2013-05-24 23:11:00,54.0,54.0,-100.00,ESE,111,0.0,6.0,100,0.00,,,0.14,0.000000,,2013-05-25 09:11:00,
2013-05-24 23:21:00,54.0,54.0,-100.00,ESE,111,0.0,6.0,100,0.00,,,0.14,0.000000,,2013-05-25 09:21:00,
2013-05-24 23:53:00,55.0,55.0,-100.00,SSW,195,0.0,3.0,100,0.00,,,0.14,0.000000,,2013-05-25 09:53:00,